Date String (YYYY-MM-DD hh:mm:ss) UTC,Instrument flags,Ambient pressure (hPa),Sample flow (lpm),Bypass flow (lpm),Sample temperature (°C),Ambient temperature (°C),ASC tube jacket temperature (°C),LED temperature (°C),Box temperature (°C),Sample RH (%),Span deviation,Mass concentration (μg/m³),Mass concentration (μg/m³),Mass concentration (μg/m³)
DateTimeUTC,F1_M11,P_M11,Q1_M11,Q2_M11,T1_M11,T2_M11,T3_M11,T4_M11,T5_M11,U1_M11,ZSPAN_M11,X0_M11,X2_M11,X1_M11
2022-04-20 18:00:00,,0818.7,5.00,0.00,26.8,26.2,00.0,35.7,28.6,13.5,0000.0,0024.42,0005.64,0002.46
2022-04-20 18:01:00,,0818.8,4.99,0.00,26.8,26.2,00.0,35.7,28.6,13.5,0000.0,0025.28,0005.58,0002.45
2022-04-20 18:02:00,,0818.8,5.01,0.00,26.8,26.2,00.0,35.7,28.6,13.5,0000.0,0026.57,0005.73,0002.45
2022-04-20 18:03:00,,0818.8,5.01,0.00,26.8,26.2,00.0,35.7,28.6,13.5,0000.0,0027.32,0005.80,0002.45
2022-04-20 18:04:00,,0818.8,4.99,0.00,26.8,26.2,00.0,35.7,28.7,13.5,0000.0,0028.18,0005.88,0002.43
2022-04-20 18:05:00,,0818.9,5.00,0.00,26.8,26.2,00.0,35.7,28.7,13.3,0000.0,0028.94,0005.96,0002.46
2022-04-20 18:06:00,,0818.9,5.00,0.00,26.8,26.2,00.0,35.7,28.7,13.3,0000.0,0029.54,0006.00,0002.46
2022-04-20 18:07:00,,0818.9,5.01,0.00,26.9,26.3,00.0,35.7,28.7,13.4,0000.0,0029.40,0006.01,0002.45
2022-04-20 18:08:00,,0818.8,5.00,0.00,26.9,26.3,00.0,35.7,28.7,13.6,0000.0,0028.47,0005.88,0002.42
2022-04-20 18:09:00,,0818.7,5.00,0.00,26.9,26.3,00.0,35.7,28.7,13.7,0000.0,0031.02,0005.89,0002.42
2022-04-20 18:10:00,,0818.7,4.99,0.00,26.9,26.3,00.0,35.8,28.7,13.5,0000.0,0030.44,0005.95,0002.44
2022-04-20 18:11:00,,0818.7,5.01,0.00,26.9,26.3,00.0,35.8,28.7,13.6,0000.0,0028.11,0005.97,0002.44
2022-04-20 18:12:00,,0818.7,5.01,0.00,26.9,26.3,00.0,35.8,28.7,13.6,0000.0,0027.17,0006.03,0002.45
2022-04-20 18:13:00,,0818.5,5.00,0.00,26.9,26.3,00.0,35.8,28.8,13.7,0000.0,0026.36,0005.96,0002.45
2022-04-20 18:14:00,,0818.6,5.00,0.00,26.9,26.3,00.0,35.8,28.8,13.6,0000.0,0026.09,0006.03,0002.44
2022-04-20 18:15:00,,0818.7,5.01,0.00,26.9,26.3,00.0,35.8,28.8,12.7,0000.0,0026.70,0006.13,0002.49
2022-04-20 18:16:00,,0818.8,5.01,0.00,27.0,26.4,00.0,35.8,28.8,12.5,0000.0,0026.39,0006.19,0002.51
2022-04-20 18:17:00,,0818.7,5.00,0.00,27.0,26.4,00.0,35.8,28.9,12.6,0000.0,0026.53,0006.24,0002.56
2022-04-20 18:18:00,,0818.7,5.00,0.00,27.0,26.4,00.0,35.8,28.9,13.1,0000.0,0027.58,0006.24,0002.58
2022-04-20 18:19:00,,0818.8,4.99,0.00,27.0,26.5,00.0,35.9,28.9,13.5,0000.0,0028.33,0006.35,0002.60
2022-04-20 18:20:00,,0818.7,4.99,0.00,27.1,26.5,00.0,35.9,28.9,13.0,0000.0,0025.76,0006.35,0002.62
2022-04-20 18:21:00,,0818.8,5.00,0.00,27.1,26.5,00.0,35.9,28.9,13.1,0000.0,0025.67,0006.36,0002.62
2022-04-20 18:22:00,,0818.7,5.01,0.00,27.1,26.5,00.0,35.9,28.9,13.4,0000.0,0025.93,0006.32,0002.62
2022-04-20 18:23:00,,0818.8,5.00,0.00,27.1,26.5,00.0,35.9,28.9,13.2,0000.0,0027.41,0006.32,0002.61
2022-04-20 18:24:00,,0818.8,5.00,0.00,27.1,26.5,00.0,35.9,28.9,13.2,0000.0,0026.84,0006.36,0002.61
2022-04-20 18:25:00,,0818.8,4.99,0.00,27.1,26.5,00.0,35.9,28.9,13.3,0000.0,0026.78,0006.38,0002.63
2022-04-20 18:26:00,,0818.7,5.01,0.00,27.1,26.5,00.0,35.9,29.0,13.2,0000.0,0025.80,0006.27,0002.60
2022-04-20 18:27:00,,0818.6,4.99,0.00,27.1,26.5,00.0,35.9,29.0,13.0,0000.0,0025.33,0006.23,0002.57
2022-04-20 18:28:00,,0818.5,5.00,0.00,27.1,26.5,00.0,36.0,29.0,12.6,0000.0,0024.81,0006.26,0002.54
2022-04-20 18:29:00,,0818.5,5.00,0.00,27.1,26.6,00.0,36.0,29.0,12.3,0000.0,0023.49,0006.29,0002.57
2022-04-20 18:30:00,,0818.6,5.01,0.00,27.2,26.6,00.0,36.0,29.0,12.4,0000.0,0022.61,0006.30,0002.61
2022-04-20 18:31:00,,0818.5,5.01,0.00,27.2,26.6,00.0,36.0,29.0,12.1,0000.0,0023.16,0006.34,0002.65
2022-04-20 18:32:00,,0818.5,5.00,0.00,27.2,26.6,00.0,36.0,29.1,12.1,0000.0,0024.24,0006.36,0002.69
2022-04-20 18:33:00,,0818.5,5.00,0.00,27.2,26.6,00.0,36.0,29.1,12.4,0000.0,0025.44,0006.51,0002.76
2022-04-20 18:34:00,,0818.5,5.00,0.00,27.2,26.6,00.0,36.0,29.1,12.3,0000.0,0025.46,0006.65,0002.82
2022-04-20 18:35:00,,0818.5,4.99,0.00,27.3,26.7,00.0,36.1,29.1,12.2,0000.0,0025.97,0006.71,0002.87
2022-04-20 18:36:00,,0818.4,5.00,0.00,27.3,26.7,00.0,36.1,29.1,12.7,0000.0,0026.11,0006.68,0002.89
2022-04-20 18:37:00,,0818.5,5.01,0.00,27.3,26.7,00.0,36.1,29.1,12.5,0000.0,0026.30,0006.78,0002.90
2022-04-20 18:38:00,,0818.5,5.00,0.00,27.3,26.7,00.0,36.1,29.2,12.4,0000.0,0026.85,0006.87,0002.92
2022-04-20 18:39:00,,0818.5,4.99,0.00,27.3,26.7,00.0,36.1,29.1,12.3,0000.0,0028.60,0006.86,0002.94
2022-04-20 18:40:00,,0818.6,5.00,0.00,27.3,26.7,00.0,36.1,29.2,12.4,0000.0,0028.80,0006.91,0002.93
2022-04-20 18:41:00,,0818.5,5.01,0.00,27.3,26.8,00.0,36.1,29.2,12.1,0000.0,0029.71,0006.90,0002.94
2022-04-20 18:42:00,,0818.4,4.99,0.00,27.3,26.8,00.0,36.2,29.2,12.3,0000.0,0030.43,0006.95,0002.91
2022-04-20 18:43:00,,0818.4,4.99,0.00,27.3,26.8,00.0,36.2,29.2,12.2,0000.0,0030.96,0006.99,0002.90
2022-04-20 18:44:00,,0818.4,4.99,0.00,27.4,26.8,00.0,36.2,29.2,12.1,0000.0,0031.88,0007.09,0002.91
2022-04-20 18:45:00,,0818.3,5.00,0.00,27.4,26.8,00.0,36.2,29.2,12.0,0000.0,0030.74,0007.03,0002.89
2022-04-20 18:46:00,,0818.3,5.00,0.00,27.4,26.8,00.0,36.2,29.2,12.2,0000.0,0030.75,0007.11,0002.92
2022-04-20 18:47:00,,0818.3,5.00,0.00,27.4,26.8,00.0,36.2,29.3,11.8,0000.0,0030.53,0007.26,0002.96
2022-04-20 18:48:00,,0818.3,5.00,0.00,27.4,26.9,00.0,36.2,29.3,11.6,0000.0,0030.57,0007.37,0003.01
2022-04-20 18:49:00,,0818.4,5.00,0.00,27.4,26.9,00.0,36.2,29.3,11.7,0000.0,0031.08,0007.42,0003.03
2022-04-20 18:50:00,,0818.4,5.00,0.00,27.4,26.9,00.0,36.3,29.3,11.3,0000.0,0030.99,0007.56,0003.07
2022-04-20 18:51:00,,0818.4,5.01,0.00,27.5,26.9,00.0,36.3,29.3,11.3,0000.0,0032.04,0007.58,0003.11
2022-04-20 18:52:00,,0818.4,5.00,0.00,27.5,26.9,00.0,36.3,29.3,11.1,0000.0,0031.64,0007.66,0003.14
2022-04-20 18:53:00,,0818.5,4.99,0.00,27.5,26.9,00.0,36.3,29.4,11.0,0000.0,0033.01,0007.84,0003.16
2022-04-20 18:54:00,,0818.3,5.00,0.00,27.5,27.0,00.0,36.3,29.4,11.2,0000.0,0034.89,0007.98,0003.18
2022-04-20 18:55:00,,0818.4,5.00,0.00,27.6,27.0,00.0,36.3,29.4,11.4,0000.0,0034.35,0007.99,0003.19
2022-04-20 18:56:00,,0818.4,5.00,0.00,27.6,27.0,00.0,36.3,29.4,11.5,0000.0,0035.45,0008.02,0003.20
2022-04-20 18:57:00,,0818.0,5.02,0.00,27.6,27.0,00.0,36.4,29.5,10.4,0000.0,0035.59,0008.10,0003.20
2022-04-20 18:58:00,,0818.1,5.00,0.00,27.6,27.0,00.0,36.4,29.5,10.4,0000.0,0036.15,0008.12,0003.20
2022-04-20 18:59:00,,0818.3,5.00,0.00,27.6,27.0,00.0,36.4,29.5,10.5,0000.0,0036.60,0008.13,0003.22
